Change the Weather History Date:

Tuesday, November 1, 2011

  Actual Average Record
Temperature  
Mean Temperature 51 °F -  
Max Temperature 60 °F 64 °F 86 °F (1950)
Min Temperature 42 °F 44 °F 24 °F (1954)
Degree Days  
Heating Degree Days 14    
Growing Degree Days 1 (Base 50)    
Moisture  
Dew Point 40 °F    
Average Humidity 73    
Maximum Humidity 100    
Minimum Humidity 36    
Precipitation  
Precipitation 0.00 in - - ()
Sea Level Pressure  
Sea Level Pressure 30.28 in    
Wind  
Wind Speed 2 mph (NNE)    
Max Wind Speed 7 mph    
Max Gust Speed -    
Visibility 10 miles    
Events      
Averages and records for this station are not official NWS values.
T = Trace of Precipitation, MM = Missing Value Source: NWS Daily Summary

Daily Weather History Graph

Daily Weather History Graph

Search for Another Location

Airport or City:

Trip Planner

Search our weather history database for the weather conditions in past years. The results will help you decide how hot, cold, wet, or windy it might be!

Date:

Astronomy

Nov. 01, 2011 Rise Set
Actual Time 7:34 AM EDT 6:07 PM EDT
Civil Twilight 7:07 AM EDT 6:34 PM EDT
Nautical Twilight 6:35 AM EDT 7:06 PM EDT
Astronomical Twilight 6:04 AM EDT 7:37 PM EDT
Moon 1:19 PM EDT (11/1) 11:47 PM EDT (11/1)
Length of Visible Light 11h 27m
Length of Day
10h 32m
Waxing Crescent, 39% of the Moon is Illuminated
Nov 1
Waxing Crescent
Nov 2
First Quarter
Nov 10
Full
Nov 18
Last Quarter
Nov 25
New

Hourly Weather History & Observations

Time (EDT) Temp. Windchill Dew Point Humidity Pressure Visibility Wind Dir Wind Speed Gust Speed Precip Events Conditions
12:10 AM 46.4 °F - 42.8 °F 87% 30.25 in 10.0 mi Calm Calm - N/A   Overcast
12:30 AM 44.6 °F - 42.8 °F 93% 30.25 in 7.0 mi Calm Calm - N/A   Overcast
12:50 AM 44.6 °F - 44.6 °F 100% 30.23 in 10.0 mi Calm Calm - N/A   Overcast
1:10 AM 46.4 °F - 42.8 °F 87% 30.25 in 10.0 mi Calm Calm - N/A   Overcast
1:30 AM 44.6 °F - 44.6 °F 100% 30.24 in 10.0 mi Calm Calm - N/A   Overcast
1:50 AM 44.6 °F - 44.6 °F 100% 30.24 in 7.0 mi Calm Calm - N/A   Overcast
2:05 AM 44.6 °F - 44.6 °F 100% 30.24 in 7.0 mi Calm Calm - N/A   Overcast
2:25 AM 44.6 °F - 44.6 °F 100% 30.24 in 7.0 mi Calm Calm - N/A   Overcast
2:45 AM 44.6 °F - 44.6 °F 100% 30.24 in 10.0 mi Calm Calm - N/A   Overcast
3:05 AM 44.6 °F - 44.6 °F 100% 30.23 in 10.0 mi Calm Calm - N/A   Overcast
3:25 AM 44.6 °F - 44.6 °F 100% 30.23 in 10.0 mi Calm Calm - N/A   Overcast
3:45 AM 44.6 °F - 44.6 °F 100% 30.24 in 10.0 mi Calm Calm - N/A   Overcast
4:05 AM 44.6 °F - 44.6 °F 100% 30.23 in 10.0 mi Calm Calm - N/A   Overcast
4:25 AM 44.6 °F - 42.8 °F 93% 30.24 in 10.0 mi Calm Calm - N/A   Overcast
4:40 AM 44.6 °F - 42.8 °F 93% 30.24 in 10.0 mi Calm Calm - N/A   Overcast
5:00 AM 44.6 °F - 42.8 °F 93% 30.25 in 10.0 mi Calm Calm - N/A   Overcast
5:15 AM 44.6 °F - 42.8 °F 93% 30.25 in 10.0 mi Calm Calm - N/A   Overcast
5:40 AM 44.6 °F - 42.8 °F 93% 30.25 in 7.0 mi Calm Calm - N/A   Mostly Cloudy
6:00 AM 42.8 °F - 42.8 °F 100% 30.25 in 10.0 mi Calm Calm - N/A   Clear
6:20 AM 42.8 °F - 41.0 °F 93% 30.26 in 10.0 mi Calm Calm - N/A   Scattered Clouds
6:40 AM 42.8 °F - 42.8 °F 100% 30.26 in 10.0 mi Calm Calm - N/A   Mostly Cloudy
6:55 AM 42.8 °F - 42.8 °F 100% 30.26 in 10.0 mi Calm Calm - N/A   Overcast
7:15 AM 44.6 °F - 42.8 °F 93% 30.26 in 10.0 mi Calm Calm - N/A   Overcast
7:35 AM 44.6 °F - 42.8 °F 93% 30.27 in 10.0 mi Calm Calm - N/A   Overcast
7:55 AM 44.6 °F - 42.8 °F 93% 30.27 in 10.0 mi Calm Calm - N/A   Overcast
8:15 AM 46.4 °F 44.3 °F 42.8 °F 87% 30.28 in 10.0 mi North 4.6 mph - N/A   Overcast
8:35 AM 48.2 °F - 41.0 °F 76% 30.29 in 10.0 mi North 4.6 mph - N/A   Scattered Clouds
8:55 AM 48.2 °F - 41.0 °F 76% 30.30 in 10.0 mi NE 5.8 mph - N/A   Clear
9:10 AM 50.0 °F - 41.0 °F 71% 30.31 in 10.0 mi NNE 4.6 mph - N/A   Clear
9:30 AM 50.0 °F - 41.0 °F 71% 30.31 in 10.0 mi NNE 5.8 mph - N/A   Clear
9:50 AM 51.8 °F - 41.0 °F 67% 30.31 in 10.0 mi NNE 5.8 mph - N/A   Clear
10:10 AM 51.8 °F - 41.0 °F 67% 30.31 in 10.0 mi NE 5.8 mph - N/A   Clear
10:30 AM 53.6 °F - 41.0 °F 62% 30.32 in 10.0 mi NE 4.6 mph - N/A   Clear
10:50 AM 53.6 °F - 41.0 °F 62% 30.32 in 10.0 mi NNE 5.8 mph - N/A   Clear
11:10 AM 53.6 °F - 41.0 °F 62% 30.32 in 10.0 mi North 5.8 mph - N/A   Mostly Cloudy
11:25 AM 55.4 °F - 41.0 °F 58% 30.32 in 10.0 mi NNE 5.8 mph - N/A   Scattered Clouds
11:45 AM 55.4 °F - 41.0 °F 58% 30.32 in 10.0 mi NNE 5.8 mph - N/A   Clear
12:05 PM 57.2 °F - 39.2 °F 51% 30.31 in 10.0 mi NNE 3.5 mph - N/A   Clear
12:25 PM 55.4 °F - 39.2 °F 54% 30.31 in 10.0 mi NNE 3.5 mph - N/A   Clear
12:45 PM 57.2 °F - 37.4 °F 48% 30.31 in 10.0 mi NNE 4.6 mph - N/A   Scattered Clouds
1:05 PM 59.0 °F - 37.4 °F 45% 30.30 in 10.0 mi East 6.9 mph - N/A   Mostly Cloudy
1:25 PM 57.2 °F - 35.6 °F 44% 30.30 in 10.0 mi NNW 3.5 mph - N/A   Overcast
1:45 PM 59.0 °F - 35.6 °F 42% 30.30 in 10.0 mi Calm Calm - N/A   Scattered Clouds
2:00 PM 60.8 °F - 35.6 °F 39% 30.29 in 10.0 mi NNE 4.6 mph - N/A   Mostly Cloudy
2:20 PM 60.8 °F - 35.6 °F 39% 30.29 in 10.0 mi North 6.9 mph - N/A   Scattered Clouds
2:40 PM 60.8 °F - 35.6 °F 39% 30.29 in 10.0 mi North 5.8 mph - N/A   Mostly Cloudy
3:00 PM 60.8 °F - 33.8 °F 36% 30.29 in 10.0 mi NE 3.5 mph - N/A   Mostly Cloudy
3:20 PM 60.8 °F - 33.8 °F 36% 30.29 in 10.0 mi ENE 6.9 mph - N/A   Mostly Cloudy
3:40 PM 60.8 °F - 33.8 °F 36% 30.29 in 10.0 mi Calm Calm - N/A   Scattered Clouds
4:00 PM 59.0 °F - 33.8 °F 39% 30.29 in 10.0 mi NE 3.5 mph - N/A   Scattered Clouds
4:15 PM 59.0 °F - 33.8 °F 39% 30.30 in 10.0 mi East 3.5 mph - N/A   Mostly Cloudy
4:35 PM 60.8 °F - 33.8 °F 36% 30.29 in 10.0 mi NE 5.8 mph - N/A   Scattered Clouds
4:55 PM 59.0 °F - 33.8 °F 39% 30.30 in 10.0 mi North 4.6 mph - N/A   Clear
5:15 PM 59.0 °F - 33.8 °F 39% 30.30 in 10.0 mi NNE 3.5 mph - N/A   Clear
5:35 PM 57.2 °F - 33.8 °F 41% 30.30 in 10.0 mi Calm Calm - N/A   Clear
5:55 PM 55.4 °F - 37.4 °F 51% 30.31 in 10.0 mi Calm Calm - N/A   Clear
6:15 PM 51.8 °F - 39.2 °F 62% 30.32 in 10.0 mi Calm Calm - N/A   Clear
6:30 PM 50.0 °F - 41.0 °F 71% 30.32 in 10.0 mi Calm Calm - N/A   Clear
6:50 PM 48.2 °F - 41.0 °F 76% 30.33 in 10.0 mi Calm Calm - N/A   Clear
7:10 PM 46.4 °F - 42.8 °F 87% 30.33 in 10.0 mi Calm Calm - N/A   Clear
7:30 PM 46.4 °F - 41.0 °F 81% 30.34 in 10.0 mi Calm Calm - N/A   Clear
7:50 PM 44.6 °F - 41.0 °F 87% 30.34 in 10.0 mi Calm Calm - N/A   Clear
8:10 PM 44.6 °F - 41.0 °F 87% 30.35 in 10.0 mi Calm Calm - N/A   Clear
8:30 PM 42.8 °F - 41.0 °F 93% 30.35 in 10.0 mi Calm Calm - N/A   Clear
8:45 PM 42.8 °F - 41.0 °F 93% 30.35 in 10.0 mi Calm Calm - N/A   Clear
9:05 PM 42.8 °F - 41.0 °F 93% 30.35 in 10.0 mi Calm Calm - N/A   Clear
9:25 PM 42.8 °F - 41.0 °F 93% 30.36 in 10.0 mi Calm Calm - N/A   Clear
9:45 PM 41.0 °F - 41.0 °F 100% 30.36 in 10.0 mi Calm Calm - N/A   Clear
10:05 PM 41.0 °F - 41.0 °F 100% 30.37 in 10.0 mi Calm Calm - N/A   Clear
10:25 PM 41.0 °F - 39.2 °F 93% 30.37 in 10.0 mi Calm Calm - N/A   Clear
10:45 PM 41.0 °F - 39.2 °F 93% 30.37 in 10.0 mi Calm Calm - N/A   Clear
11:00 PM 41.0 °F - 39.2 °F 93% 30.37 in 7.0 mi Calm Calm - N/A   Clear
11:20 PM 39.2 °F - 39.2 °F 100% 30.36 in 10.0 mi Calm Calm - N/A   Clear
11:40 PM 39.2 °F - 37.4 °F 93% 30.36 in 7.0 mi Calm Calm - N/A   Clear